Location: *
(33.8649°S, 62.1526°E)
Time: 16:15:19
(UTC+00:00)

NOSS 3-3 (A) - Pass Details

Date: 17 January 2021
Orbit: 816 x 1396 km, 63.4° (Epoch: 01 March)

Event Time Altitude Azimuth Distance (km) Brightness Sun altitude
Rises 16:27:44 0° 213° (SSW) 3,713 8.5 -15.5°
Reaches altitude 10° 16:30:27 10° 215° (SW) 2,681 7.5 -15.9°
Maximum altitude 16:36:34 72° 297° (WNW) 918 3.9 -16.9°
Enters shadow 16:40:06 23° 17° (NNE) 1,697 4.8 -17.4°
